Flag Weather past 2 weeks in Newark, New Jersey, U.S.A.

Now
37 °F

Mostly cloudy.


Feels Like: 29 °F
Forecast: 33 / 39 °F
Wind: 12 mph from Northwest

Location: Newark International Airport

Current Time: Nov 27, 2014 at 12:39:21 AM

Latest Report: Nov 26, 2014 at 11:51 PM


Visibility: 9 mi

Pressure: 29.85 "Hg

Humidity: 86%

Dew point: 33 °F

Location of NewarkLocation

Historic Weather in Newark — Graph

°F

Newark temperature yesterday

Maximum temperature yesterday: 48 °F (at 12:51 AM)
Minimum temperature yesterday: 33 °F (at 10:51 AM)
Average temperature yesterday: 38 °F

Past Weeks' High & Low Weather Summary

 TemperatureHumidityPressure
High74 °F (Nov 24, 2:51 PM)100% (Nov 17, 11:04 AM)30.51 "Hg (Nov 17, 11:04 AM)
Low21 °F (Nov 19, 6:51 AM)26% (Nov 21, 2:51 PM)29.52 "Hg (Nov 17, 6:51 PM)
Average42 °F57%30.06 "Hg
* Reported Nov 11 11:01 PM — Nov 26 10:51 PM, Newark, Weather by CustomWeather, © 2014

Note: Actual official high and low records may vary slightly from our data, if they occured in-between our weather recording intervals... More about our weather records

Advertising

Newark weather history for previous 24 hours

 ConditionsComfort  
Time TempWeatherWind HumidityBarometerVisibility
10:51 PM
Nov 26
36 °FMostly cloudy.15 mph89%29.82 "Hg9 mi
9:51 PM36 °FLight rain. Mostly cloudy.15 mph92%29.82 "Hg8 mi
8:51 PM36 °FLight rain. Overcast.14 mph89%29.80 "Hg9 mi
7:51 PM35 °FLight rain. Fog.18 mph92%29.81 "Hg3 mi
6:51 PM35 °FLight rain. Fog.18 mph96%29.80 "Hg3 mi
5:51 PM35 °FLight rain. Fog.17 mph96%29.81 "Hg3 mi
4:51 PM35 °FLight rain. Fog.17 mph92%29.79 "Hg6 mi
3:51 PM34 °FLight rain. Fog.18 mph97%29.83 "Hg2 mi
2:51 PM34 °FLight rain. Fog.16 mph97%29.88 "Hg1 mi
2:03 PM34 °FSleet. Fog.15 mph100%29.92 "Hg1 mi
1:51 PM33 °FSleet. Fog.15 mph96%29.94 "Hg1 mi
12:51 PM33 °FLight rain. Fog.12 mph96%30.01 "Hg1 mi
11:51 AM33 °FLight rain. Fog.14 mph96%30.01 "Hg1 mi
10:51 AM33 °FLight rain. Fog.9 mph96%30.10 "Hg1 mi
10:03 AM36 °FLight rain. Fog.12 mph93%30.14 "Hg2 mi
9:51 AM36 °FSleet. Fog.9 mph92%30.14 "Hg2 mi
8:55 AM37 °FSleet. Fog.10 mph93%30.12 "Hg3 mi
7:51 AM41 °FLight rain. Cloudy.17 mph80%30.14 "Hg8 mi
6:51 AM44 °FLight rain. Mostly cloudy.7 mph68%30.14 "Hg10 mi
5:51 AM46 °FLight rain. Mostly cloudy.20 mph56%30.10 "Hg10 mi
4:51 AM48 °FLight rain. Mostly cloudy.15 mph52%30.11 "Hg10 mi
3:51 AM47 °FMostly cloudy.8 mph56%30.17 "Hg10 mi
2:51 AM48 °FMostly cloudy.5 mph52%30.19 "Hg10 mi
1:51 AM48 °FOvercast.3 mph54%30.17 "Hg10 mi
12:51 AM48 °FOvercast.3 mph52%30.15 "Hg10 mi
Weather by CustomWeather, © 2014

See weather overviewHow to use our weather pages